Regional Weather Roundup
Issued by NWS

Home | Current Version | Previous Version | Text Only | Print | Product List | Glossary Off
Versions: 1 2 3 4 5 6 7 8 9 10 11 12 13 14 15 16 17 18 19 20 21 22 23 24 25 26 27 28 29 30 31 32 33 34 35 36 37 38 39 40 41 42 43 44 45 46 47 48 49 50

000
ASUS45 KBOU 291207
RWRCO

WEATHER ROUNDUP FOR COLORADO
NATIONAL WEATHER SERVICE DENVER/BOULDER CO
600 AM MDT SUN MAR 29 2015

NOTE: "FAIR" INDICATES FEW OR NO CLOUDS BELOW 12000 FEET WITH NO
SIGNIFICANT WEATHER AND/OR OBSTRUCTIONS TO VISIBILITY.

COZ001>005-013-030-031-291300-
...NORTHWEST COLORADO...

CITY           SKY/WX    TMP DP  RH WIND       PRES   REMARKS
CRAIG          CLEAR     29  20  69 S3        30.30R
HAYDEN         CLEAR     32  16  51 NE5       30.30R WCI  27
MEEKER         CLEAR     35  19  52 SE3       30.30R
MOUNT WERNER   NOT AVBL
STEAMBOAT SPGS CLEAR     37  17  45 W3        30.30S
WALDEN         CLEAR     30  19  64 N7        30.29S WCI  23
$$

COZ006>008-011-291300-
...WEST CENTRAL VALLEYS...

CITY           SKY/WX    TMP DP  RH WIND       PRES   REMARKS
GRAND JUNCTION CLEAR     47  16  29 E5        30.18R
MONTROSE       MOCLDY    48  26  42 E6        30.23R
EAGLE          CLEAR     39  19  45 E3        30.30R
RIFLE          CLEAR     42  17  36 S5        30.25R
DELTA          MOCLDY    48  25  40 NE7       30.20R
NUCLA          MOCLDY    41  21  45 SE6       30.26R
$$

COZ017>023-064>068-291300-
...SOUTHWEST COLORADO...

CITY           SKY/WX    TMP DP  RH WIND       PRES   REMARKS
DURANGO        PTCLDY    35  23  61 CALM      30.23R
CORTEZ         CLEAR     34  22  61 E8        30.22R WCI  27
PAGOSA SPRINGS PTCLDY    35  22  61 CALM      30.27S
TELLURIDE      NOT AVBL
WOLF CREEK PAS PTCLDY    32  14  47 W8        30.46S WCI  25
$$

COZ009-010-012-014-032>034-037-058>063-291300-
...CENTRAL COLORADO...

CITY           SKY/WX    TMP DP  RH WIND       PRES   REMARKS
ASPEN          PTCLDY    34  23  64 S7        30.31R WCI  28
BUENA VISTA    PTCLDY    40  29  63 N12       30.27R
COPPER MTN     PTCLDY    28   5  37 W20       30.41S WCI  15
BERTHOUD PASS  FAIR      19  12  73 NW20G26   30.41R WCI   4
COTTONWOOD PAS PTCLDY    43  18  36 W18G30    30.32R
GUNNISON       MOCLDY    41  25  52 N3        30.32R
KREMMLING      CLEAR     32  16  51 CALM      30.32R
LEADVILLE      PTCLDY    27  18  69 E5        30.35R WCI  22
SALIDA         PTCLDY    45  27  50 W16       30.33R
SUNLIGHT       PTCLDY    34   3  27 W5        30.43R WCI  30
WILKERSON PASS CLEAR     32   1  27 NW17G32   30.36S WCI  21
$$

COZ069>075-291300-
...SAN LUIS VALLEY/SANGRE DE CRISTO MOUNTAINS...

CITY           SKY/WX    TMP DP  RH WIND       PRES   REMARKS
ALAMOSA        PTCLDY    36  20  52 NW7       30.27R
LA VETA PASS   CLEAR     36  18  48 SW3       30.33R
SAGUACHE       NOT AVBL
$$

COZ035-036-038>040-291300-
...NORTHERN COLORADO FRONT RANGE...

CITY           SKY/WX    TMP DP  RH WIND       PRES   REMARKS
DENVER INTL AP PTCLDY    36  28  73 E12       30.19R
DMNS CITY PARK   N/A     44  25  48 E6G15     30.20R
AURORA         NOT AVBL
FRONT RANGE AP CLEAR     41  28  60 NE8       30.20R
ERIE MUNI ARPT CLEAR     40  25  54 SE3       30.20R
BOULDER MUN AP CLEAR     45  25  45 SW7       30.17R
CENTENNIAL     PTCLDY    43  27  53 E13       30.20R
BROOMFIELD     CLEAR     41  27  56 CALM      30.21R
FORT COLLINS   CLEAR     46  19  34 N10       30.20R
LONGMONT       CLEAR     45  24  43 E15       30.20R
$$

COZ041-046-047-076>085-087-088-291300-
...PIKES PEAK/PALMER DIVIDE AND SOUTHERN FOOTHILLS...

CITY           SKY/WX    TMP DP  RH WIND       PRES   REMARKS
COLO. SPRINGS  PTCLDY    46  25  43 NE15      30.17R
A. F. ACADEMY  NOT AVBL
ELLICOTT       CLEAR    N/A N/A N/A E8        30.18R
FALCON         CLEAR     40  25  55 N10       30.21R
FORT CARSON    CLEAR     49  28  44 N10       30.15R
LIMON          CLEAR     39  24  55 N14       30.17R
MONUMENT HILL  CLEAR     32  27  80 SE5       30.22R WCI  27
TRINIDAD       CLEAR     42  23  46 W12       30.15R
$$

COZ042>045-048>051-090-091-291300-
...NORTHEAST COLORADO...

CITY           SKY/WX    TMP DP  RH WIND       PRES   REMARKS
GREELEY ARPT   CLEAR     43  18  36 NE15      30.18R
AKRON          CLEAR     39  21  48 N12       30.17R
BURLINGTON     PTCLDY    48  29  47 N16G26    30.10R
WRAY           CLEAR     45  26  47 NW16      30.11R
STERLING       CLEAR     43  21  42 N13       30.16R
HOLYOKE        NOT AVBL
FORT MORGAN    CLEAR    N/A N/A N/A N15G21    30.19R
$$

COZ086-089-092>099-291300-
...SOUTHEAST COLORADO...

CITY           SKY/WX    TMP DP  RH WIND       PRES   REMARKS
PUEBLO         CLEAR     55  30  38 N10       30.11R
LA JUNTA       MOCLDY    55  30  38 NE13      30.12R
LAMAR          PTCLDY    52  34  50 W5        30.06R
SPRINGFIELD      N/A     54  28  36 N21       30.06R
$$



USA.gov is the U.S. government's official web portal to all federal, state and local government web resources and services.